Weather History for Racine, WI

Change the Weather History Date:

Saturday, March 30, 2013

  Actual Average Record
Temperature  
Mean Temperature 42 °F -  
Max Temperature 57 °F 46 °F 83 °F (1986)
Min Temperature 30 °F 32 °F 6 °F (1969)
Degree Days  
Heating Degree Days 22    
Moisture  
Dew Point 30 °F    
Average Humidity 56    
Maximum Humidity 69    
Minimum Humidity 42    
Precipitation  
Precipitation 0.00 in - - ()
Sea Level Pressure  
Sea Level Pressure 30.04 in    
Wind  
Wind Speed 8 mph (SSW)    
Max Wind Speed 16 mph    
Max Gust Speed 20 mph    
Visibility 10 miles    
Events Rain    
Averages and records for this station are not official NWS values.
T = Trace of Precipitation, MM = Missing Value Source: NWS Daily Summary

Daily Weather History Graph

Daily Weather History Graph

Search for Another Location

Airport:

Trip Planner

Search our weather history database for the weather conditions in past years. The results will help you decide how hot, cold, wet, or windy it might be!

Date:

Astronomy

Mar. 30, 2013 Rise Set
Actual Time 6:36 AM CDT 7:15 PM CDT
Civil Twilight 6:08 AM CDT 7:43 PM CDT
Nautical Twilight 5:34 AM CDT 8:17 PM CDT
Astronomical Twilight 4:59 AM CDT 8:52 PM CDT
Moon 11:27 PM CDT (3/30) 8:26 AM CDT (3/30)
Length of Visible Light 13h 35m
Length of Day
12h 38m
Waning Gibbous, 86% of the Moon is Illuminated
Mar 30
Waning Gibbous
Apr 2
Last Quarter
Apr 10
New
Apr 18
First Quarter
Apr 25
Full

Hourly Weather History & Observations

Time (CDT) Temp. Windchill Dew Point Humidity Pressure Visibility Wind Dir Wind Speed Gust Speed Precip Events Conditions
2:53 AM 33.1 °F 26.9 °F 23.0 °F 66% 30.25 in 10.0 mi SW 6.9 mph - N/A   Clear
3:53 AM 30.0 °F 26.5 °F 21.0 °F 69% 30.23 in 10.0 mi WSW 3.5 mph - N/A   Clear
4:53 AM 30.9 °F 26.2 °F 21.9 °F 69% 30.22 in 10.0 mi SW 4.6 mph - N/A   Clear
5:53 AM 32.0 °F 26.4 °F 21.0 °F 64% 30.22 in 10.0 mi SSW 5.8 mph - N/A   Clear
6:53 AM 32.0 °F 25.6 °F 21.0 °F 64% 30.20 in 10.0 mi SSW 6.9 mph - N/A   Clear
7:53 AM 37.0 °F 31.6 °F 23.0 °F 57% 30.18 in 10.0 mi South 6.9 mph - N/A   Clear
8:53 AM 43.0 °F 38.2 °F 23.0 °F 45% 30.17 in 10.0 mi South 8.1 mph - N/A   Clear
9:53 AM 44.1 °F 36.8 °F 21.9 °F 42% 30.15 in 10.0 mi South 16.1 mph - N/A   Clear
10:53 AM 46.9 °F - 26.1 °F 44% 30.13 in 10.0 mi SSE 10.4 mph - N/A   Scattered Clouds
11:53 AM 46.9 °F - 27.0 °F 46% 30.09 in 10.0 mi SSE 15.0 mph - N/A   Clear
12:53 PM 46.9 °F - 28.0 °F 48% 30.06 in 10.0 mi South 16.1 mph - N/A   Overcast
1:53 PM 48.9 °F - 30.9 °F 50% 30.02 in 10.0 mi SSE 13.8 mph - N/A   Clear
2:53 PM 51.1 °F - 33.1 °F 50% 29.99 in 10.0 mi SSE 10.4 mph - N/A   Scattered Clouds
3:53 PM 53.1 °F - 35.1 °F 50% 29.95 in 10.0 mi South 9.2 mph - N/A   Clear
4:53 PM 52.0 °F - 35.1 °F 53% 29.94 in 10.0 mi South 6.9 mph - N/A   Overcast
5:53 PM 55.9 °F - 35.1 °F 45% 29.92 in 10.0 mi SW 8.1 mph 19.6 mph N/A   Overcast
6:53 PM 54.0 °F - 37.0 °F 53% 29.91 in 10.0 mi SSW 8.1 mph - N/A   Overcast
7:53 PM 53.1 °F - 39.0 °F 59% 29.90 in 10.0 mi SSW 9.2 mph - 0.00 in Rain Light Rain
8:53 PM 52.0 °F - 39.0 °F 61% 29.88 in 10.0 mi South 9.2 mph - 0.00 in   Overcast
9:53 PM 51.1 °F - 39.0 °F 63% 29.88 in 10.0 mi SSW 8.1 mph - N/A   Overcast
10:53 PM 50.0 °F - 39.0 °F 66% 29.86 in 10.0 mi SSW 9.2 mph - N/A   Overcast
11:53 PM 48.9 °F - 39.0 °F 69% 29.83 in 10.0 mi SW 6.9 mph - 0.00 in   Overcast